Location: Newark
(20.0000°S, 47.0000°E)
Time: 23:05:39
(UTC+00:00)

N. Korean satellite - Visible Passes

Search period start: 19 March 2019 00:00
Search period end: 29 March 2019 00:00
Orbit: 455 x 510 km, 97.2° (Epoch: 18 March)

Date Brightness Start Highest point End Pass type
(mag) Time Alt. Az. Time Alt. Az. Time Alt. Az.
19 Mar 10.3 01:32:42 10° E 01:33:39 11° ESE 01:34:37 10° ESE visible
20 Mar 10.4 15:52:02 10° WSW 15:52:39 10° WSW 15:53:16 10° W visible
21 Mar 7.8 02:13:37 10° NNE 02:17:10 49° ESE 02:20:48 10° S visible
21 Mar 9.4 15:25:05 10° SSW 15:28:02 24° WSW 15:30:54 10° NW visible
22 Mar 9.5 01:49:42 10° NE 01:52:29 21° ESE 01:55:20 10° SSE visible
24 Mar 10.1 15:45:17 10° SW 15:46:50 12° WSW 15:48:22 10° W visible
25 Mar 8.2 02:07:53 10° NNE 02:11:21 39° ESE 02:14:53 10° S visible
25 Mar 8.9 15:19:04 10° SSW 15:22:11 28° WSW 15:25:14 10° NW visible
26 Mar 9.8 01:44:11 10° ENE 01:46:41 17° ESE 01:49:13 10° SSE visible
28 Mar 6.8 02:26:31 10° NNE 02:30:14 83° ESE 02:34:01 10° S visible
28 Mar 9.8 15:38:55 10° SW 15:40:58 15° WSW 15:42:59 10° WNW visible
